This is the latest recevied weather packets stored in our database for station/object IK3ZGB. If no packets are shown the sender has not sent any weather packets the latest 10 day(s).
| Time | Temp. | Humidity | Pressure | Rain* | Wind** | Luminosity | Snow |
|---|---|---|---|---|---|---|---|
| 1777834725 | 21.11° C | 54% | 1017.1 hPa | - | - | - | - |
| 1777834126 | 21.11° C | 54% | 1016.8 hPa | - | - | - | - |
| 1777833525 | 21.11° C | 54% | 1016.7 hPa | - | - | - | - |
| 1777832925 | 21.11° C | 54% | 1016.7 hPa | - | - | - | - |
| 1777832324 | 21.67° C | 55% | 1016.5 hPa | - | - | - | - |
| 1777831724 | 21.67° C | 55% | 1016.2 hPa | - | - | - | - |
| 1777831125 | 22.22° C | 54% | 1016 hPa | - | - | - | - |
| 1777830525 | 22.22° C | 54% | 1016.1 hPa | - | - | - | - |
| 1777829924 | 22.78° C | 53% | 1015.7 hPa | - | - | - | - |
| 1777829325 | 22.78° C | 53% | 1015.8 hPa | - | - | - | - |
| 1777828725 | 23.33° C | 53% | 1015.8 hPa | - | - | - | - |
| 1777828124 | 23.33° C | 53% | 1015.7 hPa | - | - | - | - |
| 1777827525 | 23.89° C | 53% | 1016 hPa | - | - | - | - |
| 1777826924 | 23.89° C | 52% | 1015.9 hPa | - | - | - | - |
| 1777826324 | 25° C | 50% | 1016.1 hPa | - | - | - | - |
| 1777825725 | 25° C | 47% | 1016 hPa | - | - | - | - |
| 1777825124 | 25° C | 46% | 1016 hPa | - | - | - | - |
| 1777824525 | 25.56° C | 47% | 1016 hPa | - | - | - | - |
| 1777823924 | 25° C | 47% | 1016.1 hPa | - | - | - | - |
| 1777823325 | 25° C | 47% | 1016.2 hPa | - | - | - | - |
| 1777822724 | 25° C | 48% | 1016.3 hPa | - | - | - | - |
| 1777822125 | 25° C | 48% | 1016.4 hPa | - | - | - | - |
| 1777821524 | 25° C | 49% | 1016.6 hPa | - | - | - | - |
| 1777820925 | 25° C | 49% | 1016.4 hPa | - | - | - | - |
| 1777820325 | 25° C | 48% | 1016.4 hPa | - | - | - | - |
* Rain since midnight (hover to see other rain measurements)
** Current wind speed in m/s (hover to see current wind gust speed)